User: anonymous   Login
Location: Ku?niki
(51.4449°N, 17.8974°E)
Time: 12:12:52
(UTC+00:00)
Language:

SAUDICOMSAT 5 - Orbit

View from above orbital plane
View from above orbital plane
View from above satellite
View from above satellite

Ground track
Ground track

The orbit data is extracted from the following two-line orbital elements,

1 31124U 07012H   22341.41730077  .00000557  00000-0  11384-3 0  9999
2 31124  98.1753 287.2578 0050308 213.1422 146.6625 14.64027515834893
Epoch (UTC): 07 December 2022 10:00:54
Eccentricity: 0.0050308
inclination: 98.1753°
perigee height: 644 km
apogee height: 716 km
right ascension of ascending node: 287.2578°
argument of perigee: 213.1422°
revolutions per day: 14.64027515
mean anomaly at epoch: 146.6625°
orbit number at epoch: 83489

The dashed part of the orbit path shows where the satellite is in the earth's shadow,  

DLR